Location: Asheville, NC
(35.6000°N, 82.5500°W)
Time: 00:03:51
(UTC-04:00)

Tiangong 2 - Pass Details

Date: 10 October 2017
Orbit: 388 x 391 km, 42.8° (Epoch: 22 October)

Event Time Altitude Azimuth Distance (km) Brightness Sun altitude
Exits shadow 07:05:59 - 284° (WNW) 1,587 3.5 -6.2°
Reaches altitude 10° 07:06:28 10° 288° (WNW) 1,416 3.3 -6.1°
Maximum altitude 07:09:14 26° 348° (NNW) 800 2.5 -5.6°
Drops below altitude 10° 07:12:00 10° 49° (NE) 1,420 4.6 -5.0°
Sets 07:14:18 0° 62° (ENE) 2,276 6.1 -4.5°
